SCP
0 0 0 0 0 0 0 0 0 0 0 0 0 0 0 0 0 0 0 0 0 0 0 0 0 0 0 0 0 0 0 0 0 0 0 0 -0 0 -1 1 1 1 2 2
0 0 -0 0 0 0 0 0 0 0 0 0 0 0 -0 0 0 0 0 0 0 0 0 0 0 0 0 0 0 0 0 0 0 0 0 0 -0 -0 0 -1 1 1 2 4
0 0 0 0 0 0 0 0 0 0 0 -0 0 0 0 0 0 0 0 0 0 0 0 0 0 0 0 0 0 0 0 0 0 0 0 0 -0 -0 0 -0 0 0 1 2
0 0 0 0 0 0 0 0 0 0 0 0 0 0 0 0 0 0 0 0 0 0 0 0 0 0 0 0 0 0 0 0 0 0 0 0 -0 -0 -0 -0 0 0 0 1
0 0 0 0 0 0 0 0 0 0 -0 0 -0 0 -0 0 0 0 0 0 0 0 0 0 0 0 0 0 0 0 0 0 0 0 0 0 0 -0 -0 -0 -0 -0 0 0
0 0 0 0 0 0 0 0 0 0 0 0 -0 0 -0 0 0 0 0 0 0 0 0 0 0 0 0 0 0 0 0 0 0 0 0 0 -0 -0 -0 -0 -0 -0 0 1
-0 0 0 0 0 0 0 0 0 0 0 0 0 0 0 0 0 0 0 0 0 0 0 0 0 0 0 0 0 0 0 0 0 0 0 0 0 -0 -0 -0 -0 0 1 0
0 0 0 0 0 0 0 0 0 0 0 0 0 0 0 0 0 0 0 0 0 0 0 0 0 0 0 0 0 0 0 0 -0 -0 0 0 -0 -0 -0 -0 -0 0 0 0
0 0 0 0 0 0 0 0 0 0 0 0 0 0 0 0 0 0 0 0 0 0 0 0 0 0 0 0 0 0 0 0 -0 -0 0 0 0 -0 0 0 -0 0 0 0
0 0 0 0 0 0 0 0 0 0 0 0 0 0 0 0 0 0 0 0 0 0 0 0 0 0 0 0 0 0 0 -0 -0 -0 0 0 0 -0 0 0 0 0 -0 0
0 0 0 0 0 0 0 0 0 0 0 0 0 0 0 0 0 0 0 0 0 0 0 0 0 0 0 0 0 0 0 0 -0 -0 -0 0 0 0 0 0 0 0 0 0
0 0 0 0 0 0 0 0 0 0 0 0 0 0 0 0 0 0 0 0 0 0 0 0 0 0 0 0 0 0 0 0 0 -0 -0 0 0 0 0 0 0 0 0 1
0 0 0 0 0 0 0 0 0 0 0 0 0 0 0 0 0 0 0 0 0 0 0 0 0 0 0 0 0 0 0 0 0 -0 -0 -0 0 0 0 0 0 0 0 0
0 0 0 0 0 0 0 0 0 0 0 0 0 0 -0 0 0 0 0 0 0 0 0 0 0 0 0 0 0 0 0 0 0 -0 -0 -0 0 0 0 0 0 0 0 0
0 0 0 0 0 0 0 0 0 0 0 0 0 0 0 0 0 0 0 0 0 0 0 0 0 0 0 0 0 0 0 0 0 0 -0 -0 -0 0 0 0 0 0 0 0
0 0 0 0 0 0 0 0 0 0 0 0 0 0 0 0 0 0 0 0 0 0 0 0 0 0 0 0 0 0 0 0 0 0 0 -0 -0 0 0 0 0 0 0 0
0 0 0 0 0 0 0 0 0 0 0 0 0 0 0 0 0 0 0 0 0 0 0 0 0 0 0 0 0 0 0 0 0 0 0 0 0 0 0 0 0 0 0 0
0 0 0 0 0 0 0 0 0 0 0 0 0 0 0 0 0 0 0 0 0 0 0 0 0 0 0 0 0 0 0 0 0 0 0 0 0 0 0 0 0 0 0 0
0 0 0 0 0 0 0 0 0 0 0 0 0 0 0 0 0 0 0 0 0 0 0 0 0 0 0 0 0 0 0 0 0 0 0 0 0 0 0 0 0 0 0 0
0 0 0 0 0 0 0 0 0 0 0 0 0 0 0 0 0 0 0 0 0 0 0 0 0 0 0 0 0 0 0 0 0 0 0 0 0 0 0 0 0 0 1 0
0 0 0 0 0 0 0 0 0 0 0 0 0 0 0 0 0 0 0 0 0 0 0 0 0 0 0 0 0 0 0 0 0 0 0 0 0 0 0 0 0 0 1 0
0 0 0 0 0 0 0 0 0 0 0 0 0 0 0 0 0 0 0 0 0 0 0 0 0 0 0 0 0 0 0 0 0 0 0 0 0 0 0 0 0 0 1 1
0 0 1 0 0 0 0 0 0 0 0 0 0 0 0 0 0 0 0 0 0 0 0 0 0 0 0 0 0 0 0 0 0 0 0 0 0 0 0 0 0 0 0 1
0 0 0 0 0 0 0 0 0 0 0 0 0 0 0 0 0 0 0 0 0 0 0 0 0 0 0 0 0 0 0 0 0 0 0 0 -0 0 0 0 0 0 0 1
0 0 0 0 0 0 0 0 0 0 0 0 0 0 0 0 0 0 0 0 0 0 0 0 0 0 0 0 0 0 0 0 0 0 0 0 -0 -0 0 0 0 0 0 0
0 0 0 0 0 0 0 0 0 0 0 0 0 0 0 0 0 0 0 0 0 0 0 0 0 0 0 0 0 0 0 0 0 -0 -0 -0 -0 -0 0 0 0 0 -0 -0
Wind_Speed_500mb
34 15 22 30 10 14 18 22 28 25 26 31 30 36 37 43 41 31 24 17 12 13 18 22 26 31 35 39 43 49 54 56 48 45 54 58 62 75 86 82 84 84 94 104
15 28 33 7 2 12 19 27 29 31 29 18 32 42 43 36 30 31 24 21 16 15 19 24 29 37 41 43 44 49 55 52 52 56 60 65 77 78 79 73 92 107 90 115
31 24 13 5 13 19 25 27 30 29 27 36 46 45 47 44 22 22 25 25 18 16 20 27 32 42 45 45 49 49 52 63 58 56 67 60 64 68 69 86 95 108 99 113
24 28 19 18 21 22 30 18 14 23 27 27 21 29 36 18 30 27 40 40 26 9 20 28 40 50 49 51 54 53 51 56 58 59 63 64 72 88 93 83 74 102 104 101
15 20 16 25 27 18 21 20 23 31 33 35 41 22 29 29 33 34 43 32 6 9 22 35 42 48 51 55 58 57 51 53 68 72 63 70 73 81 93 106 105 92 101 111
37 25 9 19 25 7 16 23 35 40 33 28 42 30 22 11 22 19 22 10 2 13 30 37 47 53 56 55 55 60 59 62 57 67 66 72 73 89 90 96 95 85 90 85
37 39 30 18 19 23 25 18 10 11 20 25 19 11 25 16 21 17 15 6 5 21 32 44 53 54 57 57 51 60 61 66 66 66 66 70 70 83 86 83 83 80 87 85
30 28 41 29 27 12 22 20 11 9 8 20 36 13 7 24 28 28 11 3 14 27 40 47 53 47 53 53 56 53 59 67 72 67 67 69 69 79 78 66 73 66 90 94
19 35 27 21 15 12 15 17 5 12 18 22 20 22 15 28 19 13 9 6 26 36 36 47 48 45 48 56 55 60 62 68 74 70 71 73 65 71 76 60 55 81 74 87
11 18 22 25 13 25 17 9 8 7 9 13 14 18 13 21 10 8 8 22 27 34 36 47 48 43 50 52 56 60 62 69 74 69 69 70 68 67 73 67 36 58 88 80
17 10 11 24 23 27 18 22 16 12 13 8 11 8 11 19 17 6 18 31 35 32 41 46 44 48 49 53 52 58 64 68 68 69 76 73 68 67 65 68 41 55 48 69
27 12 19 31 28 37 31 29 29 12 15 17 20 28 13 3 2 17 29 21 18 26 38 44 48 43 52 52 55 63 65 65 67 69 73 72 68 63 60 62 51 38 67 47
16 12 14 21 30 19 19 29 27 24 19 30 18 12 10 13 18 35 40 26 31 37 37 42 42 48 52 54 57 62 64 71 68 72 71 68 65 65 61 52 60 38 38 55
2 18 22 16 21 6 26 30 30 30 23 27 39 48 44 39 35 41 32 30 35 32 40 42 41 51 51 54 57 69 68 68 72 72 72 70 65 56 55 54 51 50 32 42
15 24 32 39 44 35 34 37 37 40 40 38 42 49 43 40 34 25 27 35 34 40 38 39 48 54 55 56 68 69 66 72 72 73 74 72 64 53 58 48 45 49 36 36
24 24 30 40 40 41 43 43 43 46 48 51 51 49 37 37 36 37 39 36 39 37 35 45 46 54 56 59 69 77 75 77 75 73 75 73 64 53 51 47 43 43 41 30
36 25 22 33 33 39 39 40 42 39 40 35 40 37 24 27 27 34 33 36 30 32 38 45 48 49 52 65 70 70 74 78 77 75 73 71 65 55 49 51 43 40 43 21
30 35 22 20 23 24 23 9 12 16 20 27 29 22 20 22 28 31 32 16 24 35 42 45 44 44 51 62 65 67 75 74 77 71 73 68 64 55 47 48 38 37 35 30
33 29 12 13 19 30 39 24 13 28 20 21 21 20 15 25 30 24 9 20 28 36 42 39 33 39 56 62 70 68 74 75 75 72 67 71 65 57 46 39 44 36 36 33
35 27 18 13 11 14 15 11 8 9 11 7 10 2 15 25 17 16 29 26 33 36 37 38 35 41 57 66 68 71 74 75 73 73 72 71 64 54 47 43 35 29 28 20
35 34 36 27 19 18 22 32 20 8 3 16 2 12 19 14 8 17 20 29 29 31 36 36 35 42 56 63 65 72 73 72 72 71 67 60 55 51 41 39 36 26 21 14
29 28 23 27 28 37 15 14 17 2 11 6 11 18 20 24 18 16 25 27 30 32 35 31 35 42 60 61 64 70 71 71 71 65 58 53 50 42 32 31 29 19 13 10
14 15 14 26 14 12 13 21 36 16 8 13 15 18 20 21 18 20 23 27 30 31 32 30 32 42 60 61 62 66 69 70 65 62 50 41 28 12 24 26 26 23 11 6
16 24 15 19 24 22 36 31 21 17 27 25 25 21 19 16 16 19 22 26 29 29 29 28 33 40 59 62 61 61 64 63 59 56 43 39 38 5 11 17 25 13 7 11
21 6 9 16 16 23 20 32 20 33 36 32 25 14 15 12 14 16 20 25 27 26 27 25 33 37 54 61 60 61 61 60 60 52 45 42 37 22 20 3 5 9 13 7
25 24 17 9 28 22 22 31 21 13 17 26 16 16 13 11 11 14 18 22 22 26 25 25 31 32 50 59 61 60 57 57 61 62 50 42 42 35 23 17 20 14 15 17
Wind_Direction_500mb
206 265 253 255 225 7 318 291 278 280 276 269 275 280 272 276 267 250 231 217 250 281 306 315 321 319 314 308 302 296 297 300 301 300 294 290 289 288 284 271 254 223 232 227
226 251 250 60 340 294 295 279 276 272 267 275 271 273 280 267 253 237 206 217 238 273 299 314 317 317 312 307 304 301 294 297 291 284 279 279 277 267 267 276 270 239 229 226
254 278 85 216 268 271 248 257 264 288 316 292 269 265 265 236 205 187 205 224 232 266 304 309 319 323 315 309 306 304 293 289 296 295 293 293 284 274 281 277 261 262 233 221
263 258 210 237 252 263 266 252 306 282 284 277 320 290 292 196 191 203 212 214 224 285 298 307 320 325 321 315 308 303 297 291 291 292 295 288 287 281 267 263 263 256 251 241
265 221 205 235 247 276 266 314 299 281 276 277 269 266 262 253 188 203 225 191 147 281 300 319 321 321 315 314 315 312 302 301 301 294 283 288 290 287 293 275 266 263 257 255
257 273 267 277 272 248 268 284 274 256 248 252 259 237 274 185 202 159 104 134 187 317 319 314 327 322 319 314 310 311 309 305 300 296 291 286 293 289 294 290 275 261 258 261
234 233 225 225 247 234 226 254 286 287 213 236 249 271 257 288 183 124 108 125 320 319 313 331 323 322 323 322 315 303 301 310 304 301 294 288 290 292 300 289 279 260 253 247
279 214 200 174 224 293 206 239 239 259 263 315 321 257 265 79 88 101 117 206 261 328 325 325 318 322 320 318 321 310 304 299 304 299 296 290 292 295 303 299 274 262 246 249
305 241 156 156 191 208 224 222 261 316 293 263 241 267 120 117 124 164 214 338 327 321 322 322 317 322 321 320 314 313 310 296 304 302 300 298 300 297 307 308 277 252 246 250
281 268 196 190 214 230 232 8 212 197 252 261 267 306 304 147 176 91 342 317 330 314 325 321 322 328 323 319 316 313 307 306 301 305 304 302 300 303 308 313 296 264 249 234
249 215 252 164 204 226 188 229 224 249 260 265 300 268 115 359 351 15 310 314 314 330 325 321 323 324 320 320 317 314 308 308 305 303 305 306 307 307 311 315 297 263 262 245
225 235 251 223 221 220 237 221 211 209 234 227 265 277 318 0 4 283 274 288 334 333 322 322 321 327 324 319 317 316 313 310 309 306 304 302 307 309 311 310 319 283 252 250
187 235 239 248 250 184 228 246 247 255 238 249 259 255 159 218 246 276 313 330 325 327 329 325 328 326 324 319 318 318 314 310 310 310 308 307 307 310 309 313 318 308 269 250
127 237 224 246 170 235 220 222 228 231 239 246 243 268 279 292 300 291 314 340 322 336 334 326 330 323 323 321 318 318 317 314 311 312 312 309 309 303 312 314 314 322 279 253
192 243 255 254 268 272 259 256 253 244 240 235 257 262 275 273 284 339 328 326 337 333 331 331 326 323 322 321 322 320 317 318 318 316 314 311 309 305 311 309 314 312 314 252
182 238 251 259 260 260 260 258 257 256 257 259 265 269 276 290 340 329 327 346 335 330 333 324 323 323 322 323 323 322 318 319 321 317 312 311 311 309 308 308 309 301 314 263
203 206 239 263 272 271 262 252 256 260 252 260 261 273 311 330 324 333 345 330 331 332 324 323 324 320 320 324 323 320 320 322 321 319 316 313 310 305 303 302 302 301 311 290
209 213 222 251 287 268 252 246 279 272 280 294 298 310 312 321 331 326 324 349 332 327 321 319 318 318 322 322 322 321 324 325 323 317 312 309 308 302 294 300 286 308 299 278
204 194 227 235 227 265 296 296 279 261 252 283 285 292 328 324 311 316 46 340 333 323 314 315 321 328 322 325 331 327 328 328 325 321 318 308 302 292 277 279 287 300 301 287
198 206 188 201 221 232 233 124 53 8 273 227 169 348 301 310 299 300 316 325 320 313 312 327 326 327 328 335 334 333 334 332 329 323 314 311 301 289 272 269 276 278 288 274
209 206 209 213 233 253 241 275 129 251 154 145 238 305 290 295 311 323 323 312 302 313 325 327 327 328 336 338 339 338 338 336 330 326 320 313 305 286 262 255 261 271 284 290
212 198 213 210 227 241 237 193 203 145 149 225 292 310 306 308 318 326 311 306 317 324 328 328 329 331 345 345 346 342 342 339 337 332 328 324 316 279 241 237 268 269 289 312
207 254 171 187 207 195 236 245 215 223 256 292 293 299 301 304 309 308 308 317 323 326 329 330 329 331 348 350 350 347 347 346 342 342 334 332 327 242 223 254 257 243 243 32
205 231 210 195 224 214 217 235 187 215 247 264 291 295 296 290 299 304 317 319 322 328 331 335 328 333 349 352 351 353 353 352 354 349 346 353 14 300 222 251 277 235 188 48
273 155 297 268 218 190 220 224 239 235 238 250 265 273 277 290 293 310 318 320 324 328 331 335 330 336 349 354 355 358 358 358 360 1 2 9 21 47 50 98 221 328 51 17
257 229 205 201 243 237 218 249 278 260 279 236 248 256 251 262 296 312 320 321 326 329 334 336 333 337 350 355 359 360 1 3 3 1 8 20 14 40 43 49 49 10 354 356
Wind_Speed_850mb
34 15 22 30 10 14 18 22 28 25 26 31 30 36 37 43 41 31 24 17 12 13 18 22 26 31 35 39 43 49 54 56 48 45 54 58 62 75 86 82 84 84 94 104
15 28 33 7 2 12 19 27 29 31 29 18 32 42 43 36 30 31 24 21 16 15 19 24 29 37 41 43 44 49 55 52 52 56 60 65 77 78 79 73 92 107 90 115
31 24 13 5 13 19 25 27 30 29 27 36 46 45 47 44 22 22 25 25 18 16 20 27 32 42 45 45 49 49 52 63 58 56 67 60 64 68 69 86 95 108 99 113
24 28 19 18 21 22 30 18 14 23 27 27 21 29 36 18 30 27 40 40 26 9 20 28 40 50 49 51 54 53 51 56 58 59 63 64 72 88 93 83 74 102 104 101
15 20 16 25 27 18 21 20 23 31 33 35 41 22 29 29 33 34 43 32 6 9 22 35 42 48 51 55 58 57 51 53 68 72 63 70 73 81 93 106 105 92 101 111
37 25 9 19 25 7 16 23 35 40 33 28 42 30 22 11 22 19 22 10 2 13 30 37 47 53 56 55 55 60 59 62 57 67 66 72 73 89 90 96 95 85 90 85
37 39 30 18 19 23 25 18 10 11 20 25 19 11 25 16 21 17 15 6 5 21 32 44 53 54 57 57 51 60 61 66 66 66 66 70 70 83 86 83 83 80 87 85
30 28 41 29 27 12 22 20 11 9 8 20 36 13 7 24 28 28 11 3 14 27 40 47 53 47 53 53 56 53 59 67 72 67 67 69 69 79 78 66 73 66 90 94
19 35 27 21 15 12 15 17 5 12 18 22 20 22 15 28 19 13 9 6 26 36 36 47 48 45 48 56 55 60 62 68 74 70 71 73 65 71 76 60 55 81 74 87
11 18 22 25 13 25 17 9 8 7 9 13 14 18 13 21 10 8 8 22 27 34 36 47 48 43 50 52 56 60 62 69 74 69 69 70 68 67 73 67 36 58 88 80
17 10 11 24 23 27 18 22 16 12 13 8 11 8 11 19 17 6 18 31 35 32 41 46 44 48 49 53 52 58 64 68 68 69 76 73 68 67 65 68 41 55 48 69
27 12 19 31 28 37 31 29 29 12 15 17 20 28 13 3 2 17 29 21 18 26 38 44 48 43 52 52 55 63 65 65 67 69 73 72 68 63 60 62 51 38 67 47
16 12 14 21 30 19 19 29 27 24 19 30 18 12 10 13 18 35 40 26 31 37 37 42 42 48 52 54 57 62 64 71 68 72 71 68 65 65 61 52 60 38 38 55
2 18 22 16 21 6 26 30 30 30 23 27 39 48 44 39 35 41 32 30 35 32 40 42 41 51 51 54 57 69 68 68 72 72 72 70 65 56 55 54 51 50 32 42
15 24 32 39 44 35 34 37 37 40 40 38 42 49 43 40 34 25 27 35 34 40 38 39 48 54 55 56 68 69 66 72 72 73 74 72 64 53 58 48 45 49 36 36
24 24 30 40 40 41 43 43 43 46 48 51 51 49 37 37 36 37 39 36 39 37 35 45 46 54 56 59 69 77 75 77 75 73 75 73 64 53 51 47 43 43 41 30
36 25 22 33 33 39 39 40 42 39 40 35 40 37 24 27 27 34 33 36 30 32 38 45 48 49 52 65 70 70 74 78 77 75 73 71 65 55 49 51 43 40 43 21
30 35 22 20 23 24 23 9 12 16 20 27 29 22 20 22 28 31 32 16 24 35 42 45 44 44 51 62 65 67 75 74 77 71 73 68 64 55 47 48 38 37 35 30
33 29 12 13 19 30 39 24 13 28 20 21 21 20 15 25 30 24 9 20 28 36 42 39 33 39 56 62 70 68 74 75 75 72 67 71 65 57 46 39 44 36 36 33
35 27 18 13 11 14 15 11 8 9 11 7 10 2 15 25 17 16 29 26 33 36 37 38 35 41 57 66 68 71 74 75 73 73 72 71 64 54 47 43 35 29 28 20
35 34 36 27 19 18 22 32 20 8 3 16 2 12 19 14 8 17 20 29 29 31 36 36 35 42 56 63 65 72 73 72 72 71 67 60 55 51 41 39 36 26 21 14
29 28 23 27 28 37 15 14 17 2 11 6 11 18 20 24 18 16 25 27 30 32 35 31 35 42 60 61 64 70 71 71 71 65 58 53 50 42 32 31 29 19 13 10
14 15 14 26 14 12 13 21 36 16 8 13 15 18 20 21 18 20 23 27 30 31 32 30 32 42 60 61 62 66 69 70 65 62 50 41 28 12 24 26 26 23 11 6
16 24 15 19 24 22 36 31 21 17 27 25 25 21 19 16 16 19 22 26 29 29 29 28 33 40 59 62 61 61 64 63 59 56 43 39 38 5 11 17 25 13 7 11
21 6 9 16 16 23 20 32 20 33 36 32 25 14 15 12 14 16 20 25 27 26 27 25 33 37 54 61 60 61 61 60 60 52 45 42 37 22 20 3 5 9 13 7
25 24 17 9 28 22 22 31 21 13 17 26 16 16 13 11 11 14 18 22 22 26 25 25 31 32 50 59 61 60 57 57 61 62 50 42 42 35 23 17 20 14 15 17
Wind_Direction_850mb
206 265 253 255 225 7 318 291 278 280 276 269 275 280 272 276 267 250 231 217 250 281 306 315 321 319 314 308 302 296 297 300 301 300 294 290 289 288 284 271 254 223 232 227
226 251 250 60 340 294 295 279 276 272 267 275 271 273 280 267 253 237 206 217 238 273 299 314 317 317 312 307 304 301 294 297 291 284 279 279 277 267 267 276 270 239 229 226
254 278 85 216 268 271 248 257 264 288 316 292 269 265 265 236 205 187 205 224 232 266 304 309 319 323 315 309 306 304 293 289 296 295 293 293 284 274 281 277 261 262 233 221
263 258 210 237 252 263 266 252 306 282 284 277 320 290 292 196 191 203 212 214 224 285 298 307 320 325 321 315 308 303 297 291 291 292 295 288 287 281 267 263 263 256 251 241
265 221 205 235 247 276 266 314 299 281 276 277 269 266 262 253 188 203 225 191 147 281 300 319 321 321 315 314 315 312 302 301 301 294 283 288 290 287 293 275 266 263 257 255
257 273 267 277 272 248 268 284 274 256 248 252 259 237 274 185 202 159 104 134 187 317 319 314 327 322 319 314 310 311 309 305 300 296 291 286 293 289 294 290 275 261 258 261
234 233 225 225 247 234 226 254 286 287 213 236 249 271 257 288 183 124 108 125 320 319 313 331 323 322 323 322 315 303 301 310 304 301 294 288 290 292 300 289 279 260 253 247
279 214 200 174 224 293 206 239 239 259 263 315 321 257 265 79 88 101 117 206 261 328 325 325 318 322 320 318 321 310 304 299 304 299 296 290 292 295 303 299 274 262 246 249
305 241 156 156 191 208 224 222 261 316 293 263 241 267 120 117 124 164 214 338 327 321 322 322 317 322 321 320 314 313 310 296 304 302 300 298 300 297 307 308 277 252 246 250
281 268 196 190 214 230 232 8 212 197 252 261 267 306 304 147 176 91 342 317 330 314 325 321 322 328 323 319 316 313 307 306 301 305 304 302 300 303 308 313 296 264 249 234
249 215 252 164 204 226 188 229 224 249 260 265 300 268 115 359 351 15 310 314 314 330 325 321 323 324 320 320 317 314 308 308 305 303 305 306 307 307 311 315 297 263 262 245
225 235 251 223 221 220 237 221 211 209 234 227 265 277 318 0 4 283 274 288 334 333 322 322 321 327 324 319 317 316 313 310 309 306 304 302 307 309 311 310 319 283 252 250
187 235 239 248 250 184 228 246 247 255 238 249 259 255 159 218 246 276 313 330 325 327 329 325 328 326 324 319 318 318 314 310 310 310 308 307 307 310 309 313 318 308 269 250
127 237 224 246 170 235 220 222 228 231 239 246 243 268 279 292 300 291 314 340 322 336 334 326 330 323 323 321 318 318 317 314 311 312 312 309 309 303 312 314 314 322 279 253
192 243 255 254 268 272 259 256 253 244 240 235 257 262 275 273 284 339 328 326 337 333 331 331 326 323 322 321 322 320 317 318 318 316 314 311 309 305 311 309 314 312 314 252
182 238 251 259 260 260 260 258 257 256 257 259 265 269 276 290 340 329 327 346 335 330 333 324 323 323 322 323 323 322 318 319 321 317 312 311 311 309 308 308 309 301 314 263
203 206 239 263 272 271 262 252 256 260 252 260 261 273 311 330 324 333 345 330 331 332 324 323 324 320 320 324 323 320 320 322 321 319 316 313 310 305 303 302 302 301 311 290
209 213 222 251 287 268 252 246 279 272 280 294 298 310 312 321 331 326 324 349 332 327 321 319 318 318 322 322 322 321 324 325 323 317 312 309 308 302 294 300 286 308 299 278
204 194 227 235 227 265 296 296 279 261 252 283 285 292 328 324 311 316 46 340 333 323 314 315 321 328 322 325 331 327 328 328 325 321 318 308 302 292 277 279 287 300 301 287
198 206 188 201 221 232 233 124 53 8 273 227 169 348 301 310 299 300 316 325 320 313 312 327 326 327 328 335 334 333 334 332 329 323 314 311 301 289 272 269 276 278 288 274
209 206 209 213 233 253 241 275 129 251 154 145 238 305 290 295 311 323 323 312 302 313 325 327 327 328 336 338 339 338 338 336 330 326 320 313 305 286 262 255 261 271 284 290
212 198 213 210 227 241 237 193 203 145 149 225 292 310 306 308 318 326 311 306 317 324 328 328 329 331 345 345 346 342 342 339 337 332 328 324 316 279 241 237 268 269 289 312
207 254 171 187 207 195 236 245 215 223 256 292 293 299 301 304 309 308 308 317 323 326 329 330 329 331 348 350 350 347 347 346 342 342 334 332 327 242 223 254 257 243 243 32
205 231 210 195 224 214 217 235 187 215 247 264 291 295 296 290 299 304 317 319 322 328 331 335 328 333 349 352 351 353 353 352 354 349 346 353 14 300 222 251 277 235 188 48
273 155 297 268 218 190 220 224 239 235 238 250 265 273 277 290 293 310 318 320 324 328 331 335 330 336 349 354 355 358 358 358 360 1 2 9 21 47 50 98 221 328 51 17
257 229 205 201 243 237 218 249 278 260 279 236 248 256 251 262 296 312 320 321 326 329 334 336 333 337 350 355 359 360 1 3 3 1 8 20 14 40 43 49 49 10 354 356